Helicity
164 151 176 126 75 84 62 64 57 48 62 58 60 58 58 58 64 65 67 74 75 75 80 82 77 82 86 83 88 94 103 112 113 145 119 108 108 112 99 84 99 89 90
156 188 203 137 93 75 75 66 81 52 74 77 70 83 83 79 83 95 86 82 84 87 90 84 85 86 97 94 103 118 137 143 160 166 190 137 119 104 95 76 80 78 68
162 201 218 174 128 91 79 73 75 86 90 99 104 102 110 104 103 99 108 112 115 108 100 92 97 102 115 124 120 131 136 153 157 140 177 167 132 135 92 94 87 98 100
147 204 201 151 110 90 81 87 90 94 102 103 92 89 93 97 122 136 128 127 153 157 153 151 147 142 150 139 140 148 157 170 160 182 138 122 174 149 128 116 100 98 85
171 176 203 147 114 76 83 93 105 123 131 126 119 111 111 125 123 122 121 135 143 174 188 187 173 155 156 145 136 143 154 175 162 162 148 133 120 115 148 149 111 101 114
181 129 139 124 123 94 85 101 112 143 156 159 148 131 116 108 104 112 115 128 143 166 193 191 186 167 156 147 145 139 147 163 155 162 148 163 162 143 156 145 125 115 128
206 159 6 44 84 96 108 133 130 146 164 171 159 140 126 121 121 124 131 128 136 147 165 174 170 163 153 147 141 133 142 163 172 168 177 176 211 229 198 185 142 115 133
58 67 131 71 29 65 138 165 171 158 158 155 153 150 139 141 152 156 152 161 161 160 155 148 145 147 145 144 149 160 187 209 231 243 248 275 261 226 199 195 154 116 121
89 64 -64 -0 32 160 193 193 197 179 170 174 168 163 160 155 155 165 169 168 164 158 152 149 147 148 150 159 163 168 197 234 262 282 274 257 238 211 173 154 144 146 153
35 60 73 97 145 220 245 233 215 200 202 184 168 154 152 164 174 172 167 169 164 161 156 151 148 148 153 162 167 185 203 220 235 226 212 193 178 151 144 137 124 139 154
41 71 109 131 191 238 234 232 215 190 170 157 151 150 159 168 170 168 159 154 151 154 154 153 150 153 158 167 172 184 184 188 181 182 167 158 144 134 132 135 145 151 139
30 46 121 150 195 197 171 159 159 145 139 140 140 149 143 135 130 132 134 134 132 136 137 139 142 150 162 168 172 172 171 169 167 160 152 142 130 127 128 134 128 109 95
33 41 78 123 152 154 155 144 129 123 123 121 116 110 107 104 107 116 125 134 136 133 126 120 125 136 161 170 177 169 171 168 158 143 135 131 118 123 111 96 78 63 52
25 33 33 57 89 111 114 114 119 118 116 107 92 83 78 88 101 108 118 124 129 123 122 116 122 129 142 149 156 157 154 159 154 159 147 130 121 93 64 61 62 62 66
24 50 36 46 72 91 106 108 108 110 103 95 90 85 86 94 100 100 101 107 102 109 119 116 113 105 123 127 132 137 136 142 145 141 132 106 71 75 66 57 67 69 80
55 52 65 62 92 93 87 104 102 102 99 90 87 95 96 92 89 95 102 96 93 92 102 106 100 105 112 116 124 122 127 121 108 107 84 78 82 76 87 100 113 110 95
38 63 83 100 75 83 91 95 97 110 101 97 97 93 95 96 89 84 84 88 84 91 97 110 116 124 124 118 107 111 99 95 80 63 54 56 54 50 52 77 97 110 124
106 53 71 74 56 92 88 97 120 121 119 110 108 109 104 97 97 91 82 94 93 91 97 113 113 121 116 100 95 97 93 69 58 55 55 54 51 60 60 68 83 81 82
87 64 40 40 65 78 96 132 149 155 151 141 122 119 110 106 109 104 108 125 118 111 104 107 107 98 86 80 67 58 45 46 50 55 54 50 53 63 62 64 60 60 71
70 86 76 99 79 87 123 146 154 163 154 140 124 121 109 103 98 125 135 128 111 105 102 110 94 80 67 50 35 31 38 42 45 50 48 48 50 55 56 47 54 63 70
92 106 122 120 108 136 136 128 149 139 126 139 139 123 116 103 114 142 152 138 119 106 98 91 81 58 43 31 25 29 40 41 44 49 45 42 44 51 47 45 62 67 66
129 120 142 140 134 124 124 129 119 126 149 148 134 121 116 118 123 126 130 110 101 94 83 80 62 40 28 31 29 30 33 44 49 45 47 52 43 41 41 45 57 61 57
118 135 138 148 136 119 113 105 92 120 130 131 122 113 102 108 115 132 114 106 80 74 60 50 43 35 31 37 27 23 32 37 44 49 52 50 44 43 51 47 47 60 56
75 79 95 103 108 97 90 81 104 109 110 99 102 107 107 115 115 105 92 78 46 34 31 39 37 38 43 43 47 41 41 39 42 51 53 57 58 56 57 64 57 65 63
52 59 79 90 87 82 77 92 101 90 93 96 92 96 93 105 102 81 68 39 -3 19 41 42 41 52 54 51 44 50 60 60 56 68 75 80 80 81 85 84 79 80 83
44 61 85 104 74 55 77 88 91 87 89 88 87 95 96 100 81 65 26 -6 1 14 19 30 43 51 42 61 43 42 47 55 68 83 88 87 88 89 94 95 96 99 93
Wind_Speed
64 60 57 53 47 49 43 41 37 41 38 39 40 42 42 41 40 40 40 40 39 39 39 38 37 35 33 32 34 35 37 40 41 45 45 40 40 42 41 38 37 40 39
73 64 56 56 51 50 47 44 39 39 40 40 42 43 43 45 45 44 44 44 42 41 41 42 42 39 39 38 38 37 40 44 41 46 50 54 50 42 37 36 35 40 39
79 68 62 57 52 49 45 42 42 43 42 42 43 41 42 44 46 46 47 45 45 46 47 47 45 44 41 43 41 40 40 45 43 40 44 53 52 51 38 37 39 42 43
77 72 63 52 50 52 44 41 39 38 40 41 43 45 49 51 48 48 47 47 48 48 50 51 50 49 47 46 47 46 44 43 44 43 38 39 45 50 52 42 43 42 44
73 72 64 57 49 49 47 43 41 41 40 40 40 43 47 47 47 49 50 49 48 49 50 50 50 50 50 50 50 47 43 43 43 41 42 40 40 40 44 52 46 45 40
78 74 72 65 54 49 48 44 44 43 44 44 44 45 48 50 52 53 54 53 52 52 52 52 52 51 51 51 51 50 46 42 40 40 38 41 43 41 41 46 46 49 44
80 88 68 64 59 54 48 46 46 47 44 43 43 43 44 47 50 52 53 52 52 52 53 52 51 51 50 49 49 47 44 41 41 40 42 39 41 42 44 47 49 46 41
62 75 79 68 65 59 51 47 45 42 40 40 41 41 45 47 49 50 50 50 50 51 51 52 51 51 50 49 48 46 44 43 40 39 41 39 39 43 42 43 45 43 44
48 57 61 64 58 54 51 45 40 41 42 43 45 46 47 48 50 50 51 51 52 53 54 55 55 54 54 52 49 46 44 42 40 39 39 41 42 42 41 40 38 41 44
48 46 39 50 49 49 46 44 45 46 45 45 46 47 48 47 48 50 53 52 52 53 54 54 54 54 52 50 48 45 44 42 41 39 40 40 39 39 40 37 38 37 37
42 41 35 34 32 40 45 43 44 46 47 46 46 46 48 48 48 50 51 52 51 52 52 51 51 51 50 48 45 43 43 40 38 36 36 37 36 36 36 38 38 37 35
41 38 32 25 25 26 28 33 37 43 45 45 45 45 46 46 48 49 49 48 50 50 50 50 50 49 48 45 43 42 38 35 35 34 33 33 33 33 36 36 35 35 35
32 25 19 21 25 27 27 31 33 35 36 39 42 44 45 47 48 48 48 48 48 49 50 49 48 46 43 41 38 35 32 31 31 30 29 30 30 32 32 32 32 33 34
37 25 21 17 18 20 25 28 30 32 33 35 38 41 43 43 44 46 46 47 47 47 46 45 43 41 39 36 32 29 27 28 27 27 28 28 29 27 27 29 31 32 33
40 29 21 20 18 20 22 26 28 29 32 35 37 38 39 41 41 43 45 44 43 43 42 41 40 38 36 33 29 26 25 23 22 23 25 26 25 27 28 29 31 32 33
41 29 23 21 17 20 26 27 30 31 31 35 37 36 37 40 43 43 42 41 42 41 40 39 38 36 34 27 25 24 20 20 20 19 21 23 26 27 30 33 35 36 35
56 34 27 26 18 13 15 20 23 26 29 33 36 37 39 42 44 45 44 41 40 40 37 35 34 32 28 25 21 20 18 17 17 18 20 23 26 29 30 33 35 37 38
52 36 26 24 22 19 17 18 23 30 33 38 39 37 37 40 40 42 43 38 36 34 31 27 28 25 23 19 17 17 18 18 19 20 22 24 27 30 32 32 33 34 36
48 37 21 17 18 19 19 18 21 24 29 34 35 34 34 36 38 37 35 31 28 28 26 24 21 20 20 18 17 18 19 19 20 22 24 25 28 29 32 32 31 31 34
39 31 17 12 11 11 11 16 17 22 28 29 32 33 31 33 35 33 28 26 24 23 23 21 23 23 21 19 19 19 19 19 21 22 24 27 31 31 32 32 31 32 34
34 28 18 15 12 12 11 13 17 20 24 28 25 31 34 33 29 26 27 22 23 25 22 21 22 22 22 19 18 19 21 21 21 23 24 26 29 31 30 31 33 34 32
26 23 19 20 18 15 14 18 19 19 19 16 26 30 25 26 27 24 22 21 17 15 19 20 21 21 22 22 19 20 22 21 23 24 26 28 30 31 29 29 31 29 31
23 21 19 17 19 17 19 20 21 19 18 16 16 19 23 23 19 18 18 19 17 17 17 19 21 22 22 24 23 22 21 23 27 27 27 29 31 29 29 28 28 26 29
21 18 17 20 21 21 23 25 17 14 14 15 19 22 22 20 16 14 13 12 11 13 16 19 21 23 24 24 24 23 23 24 26 28 29 31 32 30 31 30 28 27 29
24 23 24 23 23 21 21 22 18 15 17 18 20 21 19 14 13 13 10 8 11 10 13 17 21 23 27 27 23 19 20 24 27 30 32 32 32 31 30 31 30 29 30
26 26 31 34 28 30 26 21 18 15 15 18 19 21 20 16 15 14 16 12 15 12 16 25 26 31 32 32 26 20 22 25 25 29 34 35 32 33 33 33 32 31 33
Wind_Direction
259 264 264 260 260 258 255 255 256 256 257 261 265 270 275 280 285 290 294 298 301 304 307 310 312 313 313 315 317 318 318 319 323 325 326 326 327 325 325 328 330 332 333
253 259 263 258 258 258 259 258 257 258 259 264 269 274 278 281 286 291 295 298 300 302 304 306 308 309 310 310 311 312 315 318 321 323 327 326 328 328 334 337 338 336 336
247 254 258 258 256 258 259 262 263 261 263 268 271 277 283 287 289 292 296 299 300 301 302 303 305 306 306 307 308 309 309 312 318 320 322 324 326 331 336 339 336 334 335
245 250 256 259 256 257 262 264 265 267 270 272 275 278 281 284 291 294 298 300 302 303 304 304 305 305 306 306 307 309 309 310 312 320 319 319 323 325 326 334 335 335 333
246 250 253 258 261 261 262 265 268 270 274 276 280 281 283 288 292 295 297 300 303 306 307 308 308 307 306 306 307 308 307 309 311 313 319 320 322 322 321 323 328 333 337
245 251 255 258 260 262 262 264 267 270 273 277 280 282 284 287 290 294 295 298 300 303 305 307 308 309 309 309 308 307 308 308 310 313 313 316 321 322 322 323 324 326 330
248 248 253 255 255 258 262 263 267 271 275 277 281 286 289 291 293 294 296 298 299 301 304 307 309 310 311 312 313 312 311 309 309 310 312 315 319 322 321 321 321 324 330
257 256 253 259 259 260 261 263 264 268 273 278 283 290 292 294 295 297 297 299 301 303 306 307 309 310 312 313 315 316 315 314 313 314 315 318 322 324 323 322 322 321 324
269 263 256 257 258 254 255 259 261 266 273 279 285 289 293 294 295 297 298 299 301 302 304 306 307 308 309 311 312 312 313 315 317 319 320 319 320 323 323 322 322 321 323
275 272 269 260 257 252 253 257 262 267 275 281 286 289 292 296 297 298 297 300 302 304 305 306 307 308 310 311 311 311 313 314 317 319 318 319 321 323 324 326 325 326 327
284 277 272 264 259 255 256 259 264 270 275 281 286 289 292 295 297 298 300 302 304 306 306 308 309 309 310 312 312 313 314 316 319 321 321 322 325 326 328 328 331 332 335
290 281 270 262 257 256 258 266 271 273 277 281 286 290 294 296 297 299 301 304 304 307 308 309 309 310 311 313 311 313 316 320 320 322 323 325 328 329 330 333 336 340 344
308 301 286 269 261 262 263 267 272 278 283 285 288 291 294 296 297 300 302 304 305 306 308 309 309 311 313 314 316 318 322 323 324 326 327 329 331 332 337 340 346 349 351
301 301 289 278 269 265 269 273 277 281 285 288 290 293 296 299 301 302 303 304 306 307 308 310 311 313 316 317 322 325 327 328 332 332 333 333 336 340 345 350 351 353 354
289 289 284 279 275 274 275 279 281 283 286 288 292 296 299 301 304 304 305 307 306 306 308 310 313 314 316 317 322 326 329 334 338 339 341 344 349 350 349 351 353 353 355
283 280 271 271 268 272 276 278 280 284 289 292 296 299 301 301 302 304 306 306 305 305 306 306 307 312 315 324 329 328 338 338 338 341 343 346 348 354 353 356 357 355 353
276 272 266 254 250 249 267 278 285 288 292 296 298 300 301 301 300 299 300 302 302 303 303 305 309 313 318 325 331 332 339 342 341 344 344 344 344 344 347 351 355 357 356
284 279 262 242 249 264 271 284 290 288 291 294 296 298 300 300 302 299 298 300 302 302 306 311 309 317 325 331 341 338 338 340 339 341 342 342 343 344 346 351 356 0 359
285 291 271 234 254 263 273 280 289 292 294 295 297 300 302 300 301 302 302 303 302 303 306 310 314 318 320 324 329 329 330 334 337 336 338 342 344 347 347 352 356 358 359
289 291 276 248 250 257 261 280 288 292 294 298 300 302 304 302 300 301 302 301 302 303 303 304 306 308 312 316 319 325 329 329 330 333 339 339 337 343 348 351 356 356 357
285 284 270 261 267 281 279 284 297 299 304 303 307 304 301 302 306 304 300 299 295 295 297 300 303 306 308 315 319 320 319 323 328 333 336 336 338 342 348 352 355 355 0
292 286 273 276 286 292 294 300 304 312 314 319 307 304 312 312 306 303 301 293 292 291 291 295 300 303 305 307 313 316 318 325 326 328 330 332 334 340 347 353 354 0 1
305 292 282 285 293 299 304 311 316 318 316 319 322 322 317 315 313 306 297 290 286 284 285 290 295 298 302 302 305 311 317 318 318 323 327 329 333 338 344 349 350 357 357
316 314 302 295 296 302 309 314 328 335 333 326 322 322 320 318 316 310 303 292 281 279 284 289 295 299 300 301 304 307 311 313 315 318 322 323 328 335 338 342 345 348 349
314 309 303 301 302 306 310 320 327 327 325 325 323 323 326 322 315 308 297 279 287 281 289 294 297 298 299 301 303 307 310 312 312 314 316 320 324 329 333 334 337 341 342
321 315 303 297 302 303 306 310 317 322 326 326 324 320 319 314 308 302 297 289 295 288 289 297 299 299 299 303 304 300 302 306 310 311 312 314 320 322 325 327 331 334 333